Volver al catálogo

ONEWEB-0520

ActivoComunicacionesPO
NORAD 54138·PAYLOAD·🇬🇧 United Kingdom

Lanzado Oct 22, 2022 desde Satish Dhawan Space Centre

Loading…

Próximos Pases (próximas 24 horas)

TLE

ActualizadoSource: CelesTrak SupGP

Época: Sep 14, 2026, 18:04 UTC

1 54138C 22138AB  26257.75329120 -.00002412  00000+0 -60308-2 0  2574
2 54138  87.9115 287.1282 0002016  86.2154 311.8410 13.19729208    10

Sigue ONEWEB-0520 en tiempo real con AllMySat

Download on the App Store